NAVSTAR 53 (USA 175) (28129 NORAD) Tracking and Keplerian Element Data

This shows tracking and keplerian element data for the satellite.

Feedback or suggestion? Click here.




ElementValue
Catalog28129
NameNAVSTAR 53 (USA 175)
Epoch Orbit16101
Epoch Day353.99838632
Epoch Year2025
RAAN29.9062
Inclination54.9164
Eccentricity0.0002674
Argument of Perigee294.771
Mean Anonmoly65.2663
Mean Motion1.92678603
Decay Rate-6.8E-07
L11 28129U 03058A 25353.99838632 -.00000068 00000+0 00000+0 0 9997
L22 28129 54.9164 29.9062 0002674 294.7710 65.2663 1.92678603161019



Live tracking and technical data element details for NAVSTAR 53 (USA 175) (NORAD 28129). NAVSTAR 53 (USA 175) can be tracked NOW for your location showing map with azimuth and elevation plus other details from your city location.







IsCatalogInMostPopularTable: catalog: 28129, numindb: 509
Update: records affected: 1



GetName: 28129 NAVSTAR 53 (USA 175)

Hit Count: updated at: Thu, 21 May 2026 10:26:37 GMT